Location: Gälforsberget
(66.6500°N, 22.4167°E)
Time: 10:53:06
(UTC+00:00)

Meteor 2-3 Rocket - Pass Details

Date: 11 April 2026
Orbit: 845 x 880 km, 81.2° (Epoch: 10 May)

Event Time Altitude Azimuth Distance (km) Brightness Sun altitude
Rises 21:51:44 0° 338° (NNW) 3,451 8.6 -14.4°
Reaches altitude 10° 21:54:10 10° 337° (NNW) 2,506 7.5 -14.5°
Maximum altitude 21:59:51 79° 253° (WSW) 875 3.7 -14.6°
Enters shadow 22:03:37 22° 169° (SSE) 1,786 4.8 -14.6°
